DW0326 Weather Reports


Display with metric or nautical units.
time (UTC)temp
F
wind
direction
speed
MPH
gust
MPH
rain 1hr
in
rain 24hr
in
rain mn
in
humidity
%
barometer
mb
20260507124326 67 5 5.0 11.0 0.00 0.00 0.00 89 1011.0
20260507123428 67 11 6.0 13.0 0.00 0.00 0.00 90 1010.5
20260507121626 68 15 6.0 12.0 0.00 0.00 0.00 90 1010.5
20260507120726 68 19 4.0 11.0 0.00 0.00 0.00 89 1010.2
20260507115827 68 8 4.0 10.0 0.00 0.00 0.00 89 1010.2
20260507114927 68 25 3.0 8.0 0.00 0.00 0.00 90 1009.7
20260507114027 68 26 3.0 10.0 0.00 0.00 0.00 90 1009.6
20260507113126 68 19 3.0 11.0 0.00 0.00 0.00 89 1009.6
20260507112227 68 17 3.0 9.0 0.00 0.00 0.00 90 1009.3
20260507111326 68 6 2.0 9.0 0.00 0.00 0.00 90 1009.3
20260507110426 68 17 2.0 10.0 0.00 0.00 0.00 89 1009.1
20260507105526 68 23 1.0 10.0 0.00 0.00 0.00 90 1009.2
20260507104627 68 7 1.0 6.0 0.00 0.00 0.00 90 1009.2
20260507103727 68 12 4.0 9.0 0.00 0.00 0.00 90 1009.1
20260507101927 69 18 3.0 10.0 0.00 0.00 0.00 89 1009.0
20260507101026 69 10 1.0 6.0 0.00 0.00 0.00 89 1008.8
20260507100126 69 10 2.0 7.0 0.00 0.00 0.00 89 1008.8
20260507095226 69 5 2.0 9.0 0.00 0.00 0.00 89 1008.6
20260507094327 69 19 2.0 9.0 0.00 0.00 0.00 89 1008.6
20260507090726 69 18 5.0 14.0 0.00 0.00 0.00 87 1008.5
20260507085827 69 19 5.0 12.0 0.00 0.00 0.00 87 1008.5
20260507084926 69 7 5.0 12.0 0.00 0.00 0.00 87 1008.6
20260507084026 69 11 6.0 14.0 0.00 0.00 0.00 87 1008.2
20260507083127 70 8 5.0 13.0 0.00 0.00 0.00 86 1008.2
20260507082227 70 21 5.0 12.0 0.00 0.00 0.00 87 1008.5
20260507081327 70 19 3.0 11.0 0.00 0.00 0.00 86 1008.5
20260507080427 70 29 4.0 11.0 0.00 0.00 0.00 86 1008.6
20260507075526 70 14 4.0 11.0 0.00 0.00 0.00 86 1008.6
20260507074626 70 18 3.0 11.0 0.00 0.00 0.00 86 1008.6
20260507073727 70 9 5.0 11.0 0.00 0.00 0.00 86 1008.6
20260507072826 70 16 6.0 14.0 0.00 0.00 0.00 86 1008.6
20260507071927 70 4 5.0 11.0 0.00 0.00 0.00 86 1008.8
20260507071026 70 9 5.0 15.0 0.00 0.00 0.00 85 1009.0
20260507070126 70 11 8.0 14.0 0.00 0.00 0.00 85 1009.0
20260507065226 71 12 7.0 14.0 0.00 0.00 0.00 85 1008.8
20260507063427 71 18 7.0 13.0 0.00 0.00 0.00 85 1008.6
20260507062526 71 11 6.0 13.0 0.00 0.00 0.00 85 1008.6
20260507061626 72 12 6.0 17.0 0.00 0.00 0.00 84 1008.6
20260507055826 72 9 6.0 12.0 0.00 0.00 0.00 85 1008.6
20260507054026 73 13 6.0 13.0 0.00 0.00 0.00 84 1008.0
20260507053127 73 19 5.0 12.0 0.00 0.00 0.00 84 1008.0
20260507052226 73 14 7.0 15.0 0.00 0.00 0.00 84 1008.4
20260507051327 73 13 5.0 12.0 0.00 0.00 0.00 85 1008.4
20260507045526 74 20 4.0 14.0 0.00 0.00 0.00 84 1008.1
20260507044626 74 17 4.0 12.0 0.00 0.00 0.00 84 1008.1
20260507043727 74 12 4.0 14.0 0.00 0.00 0.00 83 1008.2
20260507042826 74 11 5.0 13.0 0.00 0.00 0.00 84 1008.2
20260507041926 75 8 5.0 13.0 0.00 0.00 0.00 84 1008.4
20260507041026 75 1 3.0 9.0 0.00 0.00 0.00 84 1008.1
20260507040127 75 8 4.0 11.0 0.00 0.00 0.00 84 1008.1
20260507035226 76 7 3.0 13.0 0.00 0.00 0.00 85 1007.9
20260507034326 76 1 4.0 13.0 0.00 0.00 0.00 85 1007.9
20260507033426 76 11 6.0 13.0 0.00 0.00 0.00 84 1007.5
20260507030726 77 12 3.0 13.0 0.00 0.00 0.00 84 1007.0
20260507025826 77 7 4.0 13.0 0.00 0.00 0.00 84 1007.0
20260507024926 78 8 2.0 10.0 0.00 0.00 0.00 85 1006.5
20260507024026 78 10 4.0 8.0 0.00 0.00 0.00 85 1006.1
20260507023126 79 12 3.0 12.0 0.00 0.00 0.00 85 1006.1
20260507022226 79 10 2.0 7.0 0.00 0.00 0.00 85 1006.0
20260507021326 80 12 1.0 7.0 0.00 0.00 0.00 85 1006.0
20260507020426 80 12 0.0 4.0 0.00 0.00 0.00 85 1006.0
20260507015526 80 13 1.0 7.0 0.00 0.00 0.00 84 1005.7
20260507014626 81 8 1.0 7.0 0.00 0.00 0.00 85 1005.7
20260507012826 82 0 0.0 0.0 0.00 0.00 0.00 89 1005.2
20260507011926 82 0 0.0 0.0 0.00 0.00 0.00 88 1004.9
20260507011026 82 0 0.0 0.0 0.00 0.00 0.00 88 1004.5
20260507010126 83 196 0.0 7.0 0.00 0.00 0.00 87 1004.5
20260507005226 83 185 1.0 9.0 0.00 0.00 0.00 87 1004.3
20260507004326 83 188 2.0 9.0 0.00 0.00 0.00 87 1004.3
20260507003426 83 174 2.0 7.0 0.00 0.00 0.00 87 1004.4
20260507001626 83 184 4.0 12.0 0.00 0.00 0.00 86 1004.1
20260506234926 84 183 1.0 6.0 0.00 0.00 0.00 86 1004.1
20260506234026 84 186 2.0 10.0 0.00 0.00 0.00 86 1004.1
20260506233126 84 184 3.0 13.0 0.00 0.00 0.00 86 1004.1
20260506231326 85 154 1.0 9.0 0.00 0.00 0.00 84 1003.9
20260506225526 86 185 3.0 10.0 0.00 0.00 0.00 82 1003.9
20260506224626 86 172 3.0 11.0 0.00 0.00 0.00 82 1003.9
20260506223726 86 188 2.0 10.0 0.00 0.00 0.00 82 1003.8
20260506221926 87 176 2.0 11.0 0.00 0.00 0.00 81 1003.7
20260506221026 87 199 2.0 9.0 0.00 0.00 0.00 81 1003.5
20260506220126 87 185 2.0 10.0 0.00 0.00 0.00 81 1003.5
20260506215226 87 181 2.0 11.0 0.00 0.00 0.00 81 1003.7
20260506214326 87 176 2.0 11.0 0.00 0.00 0.00 81 1003.7
20260506213426 87 184 2.0 13.0 0.00 0.00 0.00 82 1003.8
20260506211627 87 176 2.0 8.0 0.00 0.00 0.00 83 1003.9
20260506210726 87 179 3.0 14.0 0.00 0.00 0.00 81 1003.9
20260506204926 87 189 2.0 8.0 0.00 0.00 0.00 81 1004.0
20260506204026 87 200 3.0 15.0 0.00 0.00 0.00 82 1004.1
20260506203126 86 185 3.0 12.0 0.00 0.00 0.00 82 1004.1
20260506202226 86 204 3.0 15.0 0.00 0.00 0.00 83 1004.4
20260506201326 86 208 2.0 11.0 0.00 0.00 0.00 82 1004.4
20260506200427 86 192 3.0 11.0 0.00 0.00 0.00 82 1004.4
20260506195526 86 176 2.0 11.0 0.00 0.00 0.00 83 1004.4
20260506194627 86 174 2.0 11.0 0.00 0.00 0.00 82 1004.4
20260506192827 87 186 2.0 14.0 0.00 0.00 0.00 80 1004.6
20260506191926 88 193 1.0 9.0 0.00 0.00 0.00 80 1004.8
20260506191027 88 183 2.0 11.0 0.00 0.00 0.00 79 1004.9
20260506190126 87 194 2.0 12.0 0.00 0.00 0.00 82 1004.9
20260506185225 86 207 2.0 11.0 0.00 0.00 0.00 82 1005.3
20260506184326 86 191 0.0 6.0 0.00 0.00 0.00 83 1005.3
20260506183426 85 190 0.0 6.0 0.00 0.00 0.00 82 1005.4
20260506181626 85 173 1.0 7.0 0.00 0.00 0.00 84 1005.6
20260506180726 84 0 0.0 0.0 0.00 0.00 0.00 87 1005.9
20260506175825 84 186 0.0 5.0 0.00 0.00 0.00 85 1005.9
20260506174925 84 187 1.0 6.0 0.00 0.00 0.00 85 1006.0
20260506174027 83 187 0.0 10.0 0.00 0.00 0.00 87 1006.3
20260506173126 82 186 1.0 12.0 0.00 0.00 0.00 89 1006.3
20260506172225 82 178 0.0 10.0 0.00 0.00 0.00 89 1006.4
20260506170426 82 159 0.0 4.0 0.00 0.00 0.00 90 1006.5
20260506165526 81 189 0.0 5.0 0.00 0.00 0.00 90 1006.5
20260506162825 81 188 1.0 7.0 0.00 0.00 0.00 91 1006.4
20260506161925 80 189 1.0 7.0 0.00 0.00 0.00 92 1006.2
20260506161026 80 126 0.0 5.0 0.00 0.00 0.00 92 1006.3
20260506160125 80 181 1.0 7.0 0.00 0.00 0.00 91 1006.3
20260506155226 80 191 1.0 7.0 0.00 0.00 0.00 91 1006.0
20260506154325 80 200 1.0 5.0 0.00 0.00 0.00 91 1006.0
20260506153425 80 202 2.0 8.0 0.00 0.00 0.00 91 1005.9
20260506152526 80 213 1.0 7.0 0.00 0.00 0.00 91 1005.7
20260506150725 80 187 1.0 7.0 0.00 0.00 0.00 91 1005.5
20260506145825 80 179 1.0 8.0 0.00 0.00 0.00 91 1005.5
20260506144926 80 182 2.0 9.0 0.00 0.00 0.00 91 1005.2
20260506144025 80 183 1.0 7.0 0.00 0.00 0.00 92 1005.0
20260506143125 80 196 1.0 9.0 0.00 0.00 0.00 93 1005.0
20260506142225 79 185 0.0 6.0 0.00 0.00 0.00 93 1005.2
20260506141325 79 182 2.0 11.0 0.00 0.00 0.00 94 1005.2
20260506140425 78 169 2.0 10.0 0.00 0.00 0.00 94 1005.4
20260506135525 78 167 2.0 8.0 0.00 0.00 0.00 95 1005.4
20260506134625 78 167 1.0 9.0 0.00 0.00 0.00 95 1005.4
20260506133726 78 166 1.0 6.0 0.00 0.00 0.00 96 1005.5
20260506132825 77 185 1.0 11.0 0.00 0.00 0.00 96 1005.5
20260506131925 77 0 0.0 0.0 0.00 0.00 0.00 96 1005.5
20260506131025 77 0 0.0 0.0 0.00 0.00 0.00 97 1005.5
20260506130125 77 0 0.0 0.0 0.00 0.00 0.00 97 1005.5
20260506125226 77 0 0.0 0.0 0.00 0.00 0.00 97 1005.5